Ana Sayfa
METAR-TAF:

METAR-TAF

Havaalanları :

Mountain Empire Airport

Marion / Wytheville, Virginia, Amerika Birleşik Devletleri

Enlem: 36-54N, Boylam: 081-21W, yükseklik: 780 m

Güncel hava durumu gözlemi

Rapor saat 23:55 UTC de 27 dakika önce yapıldı.
Sakin rüzgar
Sıcaklık 10°C
Nem 82%
Basınç 1020 hPa
Görüş mesafesi: 16.1 km
8000 ft yükseklikte çok bulutlu

METAR: KMKJ 232355Z AUTO 00000KT 10SM OVC080 10/07 A3012 RMK AO2 T01010071 10151 20101

Saat: 20:22 (00:22 UTC)


TAF: eksik

4.000'den fazla havaalanı için hava durumu gözlemleri ve tahminleri (METAR ve TAF raporları).

Kullanılabilir istasyonlar harita üzerinde sarı ve kırmızı noktalarla gösterilir.

İstasyonun adını görmek için fareyi noktanın üzerinde gezdirin.

Sonrasında hava gözlem ve tahminlerini görmek için tıklayın.

Haritayı değiştirmek için: yaklaştırmak için siyah artı işaretli yeşil düğmeye ve uzaklaştırmak için de eksi işaretli düğmeye hızla tıklayın; bitişik haritalar için yeşil okları kullanın.


METAR-TAF: